Skip Page Navigation
NASA JPL Caltech
NASA Logo - Jet Propulsion Laboratory + View the NASA Portal
+ Center for Near-Earth Object Studies
JPL Home Earth Solar System Stars & Galaxies Technology
JPL Solar System Dynamics
BODIES ORBITS EPHEMERIDES TOOLS PHYSICAL DATA DISCOVERY FAQ SITE MAP
JPL Small-Body Database Browser
Search: [ help ]  
86432 (2000 BW51)
Classification: Main-belt Asteroid          SPK-ID: 2086432
Ephemeris | Orbit Diagram | Orbital Elements | Mission Design | Physical Parameters | Discovery Circumstances | Close-Approach Data ]

[ show orbit diagram ]
Orbital Elements at Epoch 2459000.5 (2020-May-31.0) TDB
Reference: JPL 18 (heliocentric ecliptic J2000)
 Element Value Uncertainty (1-sigma)   Units 
e .1985817597908962 4.6814e-08  
a 2.300149211297956 9.7572e-09 au
q 1.843381533136766 1.1195e-07 au
i 2.412627854470198 5.3796e-06 deg
node 56.21653049746986 0.00010329 deg
peri 19.7747459127009 0.0001042 deg
M 341.2452949108784 1.4675e-05 deg
tp 2459066.880448151756
(2020-Aug-05.38044815)
5.214e-05 TDB
period 1274.184863002378
3.49
8.1076e-06
2.22e-08
d
yr
n .2825335714252071 1.7978e-09 deg/d
Q 2.756916889459147 1.1695e-08 au
  Orbit Determination Parameters
   # obs. used (total)      561  
   data-arc span      21580 days (59.08 yr)  
   first obs. used      1960-09-24  
   last obs. used      2019-10-25  
   planetary ephem.      DE431  
   SB-pert. ephem.      SB431-N16  
   condition code      0  
   norm. resid. RMS      .6142  
   source      ORB  
   producer      Otto Matic  
   solution date      2020-Feb-23 20:50:21  

Additional Information
 Earth MOID = .858788 au 
 Jupiter MOID = 2.50629 au 
 T_jup = 3.564 
[ show covariance matrix ]

Ephemeris | Orbit Diagram | Orbital Elements | Mission Design | Physical Parameters | Discovery Circumstances | Close-Approach Data ]

Physical Parameter Table
Parameter Symbol Value Units Sigma Reference Notes
absolute magnitude H 16.6   n/a MPO439620  

86432 (2000 BW51)          Discovered 2000-Jan-30 by CSS at Catalina
Reference: 20040830/Numbers.arcLast Updated: 2004-09-06

[ show close-approach data ]
Alternate Designations
 2000 BW51 = 6863 P-L 
Ephemeris | Orbit Diagram | Orbital Elements | Mission Design | Physical Parameters | Discovery Circumstances | Close-Approach Data ]
ABOUT SSD CREDITS/AWARDS PRIVACY/COPYRIGHT GLOSSARY LINKS
FirstGov 2020-Sep-18 21:32 UT
(server date/time)  
NASA Home Page
Site Manager:   Ryan S. Park
Webmaster  Alan B. Chamberlin